Wind_Speed
34 35 36 37 38 39 39 40 42 43 44 46 48 50 52 54 56 56 58 59 59 58 58 57 56 55 53 51 50 50 49 47 47 46 45 44 43 42 40 40 39 38 38
32 32 34 35 36 37 38 39 40 42 44 45 45 46 48 50 52 54 56 57 58 58 57 57 56 56 54 52 52 51 50 49 48 48 48 47 45 43 41 41 41 40 40
30 31 32 34 35 36 36 37 38 39 41 42 44 46 46 47 49 51 52 55 56 56 56 56 56 56 55 53 53 52 50 49 49 49 49 49 47 45 44 43 43 42 42
29 30 31 31 33 34 34 35 36 37 39 39 40 43 44 45 46 48 48 51 53 55 56 56 56 56 56 54 53 52 52 51 51 51 50 50 50 49 47 45 45 45 45
28 28 29 29 30 30 31 32 34 35 37 38 39 40 41 42 44 45 47 48 51 53 55 55 55 54 54 53 52 50 51 52 52 53 53 52 52 52 51 49 48 48 47
25 26 27 27 27 27 27 29 30 30 31 33 35 36 38 39 41 43 44 46 47 49 51 52 54 52 52 53 53 50 50 51 52 53 53 53 54 54 54 53 50 50 49
22 23 24 24 24 24 24 25 26 27 28 29 31 32 34 35 37 39 41 43 44 45 47 49 50 50 50 50 51 50 49 49 51 51 51 52 53 54 55 56 53 52 51
18 19 19 19 19 20 20 21 21 22 23 24 25 27 28 28 30 33 35 38 40 40 40 42 46 47 48 48 49 50 50 50 50 51 50 52 53 53 54 55 56 54 52
15 15 15 14 14 15 16 17 17 18 18 19 20 22 24 25 27 30 32 33 34 35 36 38 41 42 44 44 46 48 49 50 50 51 52 52 53 54 54 54 54 55 54
11 11 11 9 10 12 13 14 14 13 13 14 16 18 20 21 23 26 28 30 31 32 32 35 38 40 41 42 43 45 47 48 48 50 51 53 54 54 54 54 54 54 54
8 8 7 8 9 10 11 11 11 10 10 11 12 13 14 16 18 21 23 26 28 30 31 32 36 38 40 41 43 44 46 47 48 49 51 53 52 53 53 53 53 54 54
6 7 7 8 10 10 10 10 10 10 9 10 10 11 12 14 16 18 20 23 25 27 29 32 35 36 38 39 41 43 44 46 48 49 50 50 51 51 52 53 53 54 54
6 6 7 8 9 10 11 11 11 10 9 9 9 10 11 12 14 15 17 19 20 22 24 27 31 34 35 37 39 40 42 44 47 48 48 49 49 49 50 52 53 54 55
7 8 7 9 10 11 11 11 11 11 10 10 10 9 9 10 11 12 14 17 20 22 24 27 29 31 33 35 37 39 41 42 44 45 46 46 47 48 49 50 52 53 54
8 8 9 10 11 11 12 12 12 12 12 11 10 9 9 9 10 13 15 18 20 23 25 27 28 30 31 33 35 38 40 41 42 43 43 44 46 47 49 50 50 51 53
8 10 11 11 12 12 11 12 13 13 13 13 11 10 11 12 13 14 16 18 21 23 24 26 27 28 30 31 34 36 38 38 39 41 42 42 43 45 48 50 50 51 51
10 11 11 12 13 13 12 13 13 13 14 13 13 13 13 14 15 16 18 20 22 23 24 26 27 29 30 32 33 33 35 37 38 39 39 40 42 44 46 47 48 48 49
11 12 12 13 13 13 13 14 13 14 14 14 14 14 14 16 17 19 20 21 22 23 24 26 28 29 30 31 31 32 34 36 37 37 37 38 39 40 42 44 46 47 46
13 13 14 14 14 14 14 15 15 15 16 16 16 16 17 18 20 21 22 22 23 24 24 26 27 28 29 29 30 32 33 34 35 36 37 37 38 39 41 42 43 42 43
15 15 16 16 16 16 16 16 17 17 18 18 18 19 20 21 22 22 23 24 24 24 24 25 26 28 29 29 30 31 32 33 34 36 36 37 38 39 39 39 39 39 40
17 17 17 17 17 18 18 18 19 19 20 21 22 23 23 23 24 25 25 26 26 26 26 26 27 27 28 29 30 31 32 32 33 34 35 36 37 37 37 37 37 37 37
20 20 19 19 20 20 20 21 21 22 23 24 26 26 26 26 26 27 27 27 27 27 28 28 28 28 29 30 31 32 32 33 33 34 35 36 36 36 37 36 36 36 35
22 22 22 22 22 23 23 24 24 25 26 27 28 29 29 29 29 29 29 29 29 29 28 28 29 30 30 31 32 32 33 33 34 34 35 35 35 36 36 36 35 35 34
24 24 25 25 25 25 26 26 27 28 28 29 30 31 31 32 32 31 30 30 30 30 30 30 30 30 31 32 32 32 32 33 33 33 33 33 34 34 34 34 35 34 34
26 27 28 28 28 28 29 29 30 30 31 32 32 33 34 34 33 33 32 31 31 31 32 32 32 31 31 31 32 32 31 32 33 33 32 32 32 32 32 32 33 33 32
28 29 29 30 30 31 31 32 33 33 34 34 35 36 36 36 35 35 34 33 33 33 33 33 32 31 31 30 31 31 31 31 32 32 31 31 31 31 30 31 31 31 31
Wind_Direction
269 269 270 270 268 265 265 264 262 260 258 256 255 253 252 251 250 248 246 245 244 244 245 245 246 247 248 249 250 252 252 253 254 255 256 257 257 259 261 262 265 267 268
270 272 272 272 270 268 266 265 263 261 259 257 255 253 253 251 249 247 245 243 243 243 244 245 245 245 247 249 250 251 252 252 253 254 255 256 256 258 260 262 265 267 269
275 276 276 273 271 269 267 266 266 264 262 259 256 254 252 250 248 247 246 243 242 242 242 243 244 245 246 247 249 251 252 252 253 255 255 255 256 257 260 262 265 267 269
278 279 277 275 273 271 268 266 265 265 263 260 258 254 253 251 249 248 246 243 241 241 242 242 243 244 246 246 248 250 251 252 253 254 254 256 257 258 259 261 264 267 270
281 281 279 278 277 273 270 268 267 268 264 261 259 256 253 250 248 247 245 243 242 242 242 243 242 244 245 245 247 249 250 252 254 254 254 256 257 259 260 261 263 266 269
283 284 281 281 280 276 273 274 274 271 267 263 258 255 252 249 248 247 244 242 242 242 242 242 241 243 244 245 247 248 250 252 253 254 255 255 257 259 260 262 263 266 269
288 288 287 285 283 278 278 279 277 274 270 264 258 253 251 250 248 245 242 241 240 240 242 243 241 241 242 243 246 248 249 251 253 254 256 257 258 259 261 262 264 266 268
292 292 291 289 286 283 283 285 280 276 270 264 257 251 251 249 247 243 241 240 239 238 239 239 240 240 241 244 246 248 249 251 253 255 257 258 259 261 262 264 265 268 269
299 299 303 298 295 296 295 294 290 280 273 267 259 253 249 249 247 244 242 239 237 238 237 237 238 240 243 245 247 249 251 252 254 256 257 259 260 261 263 265 267 269 269
306 307 309 308 310 309 309 306 300 290 281 273 263 256 252 251 249 245 242 239 236 238 239 239 240 242 246 248 250 252 253 254 257 258 259 260 261 262 263 264 267 269 270
319 326 331 328 328 326 321 320 312 300 286 278 271 258 252 249 249 246 244 240 238 241 243 244 246 249 251 253 253 255 257 258 259 261 263 263 263 263 265 266 268 269 271
335 341 348 348 343 340 332 325 323 314 300 290 278 269 266 260 254 248 245 241 245 245 245 246 249 252 255 257 257 258 260 261 261 263 264 263 263 264 266 266 268 270 271
349 352 355 358 358 355 347 341 340 333 318 303 291 279 267 266 260 252 247 247 249 248 248 252 254 255 257 259 260 261 263 263 262 264 264 265 265 266 267 267 269 270 271
341 343 346 350 353 354 352 347 346 347 342 330 316 301 287 278 270 263 255 257 256 253 255 256 258 260 262 264 265 264 265 266 266 267 267 266 266 267 268 270 271 272 272
341 342 340 343 346 345 345 347 348 347 344 337 327 314 303 290 282 273 269 267 263 262 262 259 261 265 267 269 269 269 268 270 270 270 269 270 269 269 271 272 272 273 274
338 338 338 337 337 340 341 339 339 340 339 337 329 317 306 298 295 288 280 276 273 271 267 265 266 268 271 274 275 273 273 274 274 272 271 272 272 273 273 273 274 275 276
329 331 336 339 340 338 337 336 337 339 341 340 337 327 313 305 298 294 289 286 283 279 276 273 273 274 276 278 279 278 277 276 276 275 273 273 274 276 277 277 276 277 277
325 330 334 334 334 336 336 334 334 335 334 333 329 324 319 314 306 300 299 296 290 287 285 280 278 279 281 281 282 281 281 279 279 278 277 276 277 278 280 279 278 277 276
317 322 326 329 328 328 330 330 328 325 324 323 322 318 314 312 309 305 304 301 298 293 290 288 285 285 286 285 283 283 283 282 282 281 280 278 279 280 281 281 281 278 277
308 312 315 318 321 322 322 322 322 322 321 320 318 316 313 310 308 306 304 303 301 297 293 291 289 289 289 288 286 285 284 284 284 284 282 281 282 282 282 282 282 279 278
303 304 306 309 312 315 317 317 319 320 321 320 318 317 316 314 310 308 306 304 301 297 293 291 291 292 291 290 289 287 287 287 287 286 285 284 284 283 282 282 282 280 280
301 300 302 304 306 309 310 312 315 316 317 318 317 315 314 312 311 309 306 304 303 300 296 293 292 293 294 292 291 290 290 289 288 287 286 287 286 285 284 281 281 281 279
298 298 299 300 302 304 305 307 309 311 313 314 315 313 311 311 310 308 305 302 301 299 296 294 294 293 293 292 291 291 290 290 289 289 288 288 288 287 285 282 280 280 279
297 296 297 297 299 301 303 304 306 307 309 310 311 312 311 310 310 307 305 302 300 299 296 294 293 291 290 290 290 290 290 289 289 288 288 288 289 289 287 282 280 279 279
298 297 296 296 296 297 298 300 302 304 306 308 309 310 310 308 307 305 304 303 301 300 298 295 293 292 292 291 291 292 291 289 288 288 288 290 290 290 288 283 281 281 279
297 297 297 296 296 296 296 297 298 300 303 305 307 308 309 307 304 303 301 301 301 300 299 298 296 293 293 292 292 293 292 291 290 290 289 290 291 291 290 287 284 283 281
Height
5692 5691 5691 5690 5689 5690 5690 5691 5692 5693 5694 5697 5699 5702 5706 5710 5714 5718 5723 5728 5733 5738 5742 5747 5752 5757 5761 5764 5768 5771 5775 5778 5780 5782 5784 5786 5787 5789 5790 5792 5793 5793 5794
5684 5683 5682 5681 5680 5679 5679 5680 5680 5682 5683 5685 5687 5689 5692 5696 5700 5704 5709 5714 5719 5725 5730 5735 5740 5745 5749 5753 5757 5760 5764 5767 5769 5771 5773 5776 5778 5779 5781 5782 5783 5784 5784
5676 5675 5673 5672 5670 5670 5669 5669 5670 5670 5671 5672 5674 5677 5679 5683 5687 5691 5695 5700 5706 5712 5717 5722 5727 5732 5737 5742 5746 5749 5752 5755 5758 5760 5763 5765 5767 5770 5771 5772 5773 5774 5775
5669 5667 5665 5664 5662 5661 5660 5660 5659 5659 5660 5661 5662 5664 5667 5670 5674 5678 5682 5687 5693 5698 5704 5709 5714 5719 5724 5729 5734 5737 5741 5744 5746 5749 5751 5754 5756 5758 5760 5762 5762 5763 5764
5663 5661 5658 5656 5654 5652 5651 5651 5650 5650 5649 5649 5650 5652 5655 5659 5662 5666 5670 5675 5680 5686 5691 5696 5701 5707 5712 5717 5721 5724 5728 5731 5734 5737 5740 5741 5743 5746 5748 5750 5752 5752 5752
5657 5654 5652 5649 5647 5645 5643 5642 5641 5640 5639 5639 5640 5641 5644 5648 5651 5655 5659 5663 5668 5673 5678 5683 5689 5694 5699 5704 5708 5712 5715 5719 5721 5724 5727 5729 5731 5733 5735 5738 5740 5741 5741
5651 5649 5646 5643 5640 5638 5637 5635 5633 5632 5631 5631 5631 5633 5635 5637 5641 5645 5649 5653 5658 5663 5667 5672 5677 5683 5688 5692 5696 5699 5703 5706 5709 5712 5714 5716 5719 5721 5722 5724 5726 5728 5729
5646 5643 5640 5638 5635 5633 5630 5628 5626 5625 5623 5623 5624 5625 5627 5629 5632 5636 5640 5644 5649 5653 5658 5662 5667 5672 5677 5681 5684 5688 5691 5694 5697 5699 5701 5704 5706 5708 5709 5711 5712 5713 5715
5642 5640 5637 5634 5631 5629 5626 5623 5621 5619 5618 5618 5618 5619 5621 5623 5625 5628 5632 5635 5640 5644 5648 5653 5658 5662 5666 5670 5673 5676 5679 5682 5684 5686 5689 5691 5693 5694 5696 5696 5697 5698 5699
5640 5637 5635 5632 5629 5626 5623 5620 5617 5615 5614 5614 5614 5615 5616 5618 5619 5622 5625 5628 5632 5637 5640 5644 5649 5653 5656 5659 5662 5665 5668 5670 5672 5674 5676 5678 5680 5681 5682 5682 5683 5682 5683
5638 5636 5633 5630 5627 5624 5621 5618 5615 5613 5612 5611 5611 5611 5612 5613 5614 5616 5619 5622 5626 5629 5633 5637 5640 5644 5647 5650 5652 5654 5656 5658 5659 5661 5663 5665 5666 5668 5668 5669 5669 5668 5668
5637 5635 5632 5629 5626 5623 5620 5617 5615 5612 5611 5610 5609 5609 5609 5609 5610 5612 5614 5616 5619 5622 5626 5629 5632 5635 5637 5639 5641 5643 5644 5646 5647 5649 5650 5651 5652 5653 5654 5654 5654 5653 5653
5636 5634 5632 5629 5626 5623 5620 5617 5614 5611 5609 5608 5607 5606 5606 5606 5606 5608 5610 5612 5614 5616 5619 5622 5624 5626 5627 5629 5630 5631 5632 5633 5634 5635 5636 5637 5638 5639 5639 5639 5639 5638 5637
5635 5633 5631 5629 5626 5623 5620 5617 5614 5611 5608 5606 5605 5604 5603 5604 5604 5605 5607 5608 5610 5611 5613 5614 5616 5617 5618 5619 5619 5619 5620 5620 5621 5621 5622 5622 5623 5624 5624 5624 5623 5623 5622
5635 5633 5631 5628 5625 5623 5620 5617 5614 5611 5608 5606 5604 5603 5602 5602 5603 5603 5603 5604 5605 5606 5606 5607 5608 5608 5609 5608 5608 5608 5608 5608 5608 5608 5608 5608 5609 5609 5609 5609 5608 5607 5606
5634 5632 5629 5627 5624 5622 5619 5616 5613 5611 5608 5605 5603 5602 5601 5601 5600 5600 5600 5600 5600 5600 5600 5600 5600 5600 5599 5598 5598 5597 5596 5596 5595 5595 5595 5595 5595 5595 5594 5594 5593 5591 5589
5633 5631 5628 5626 5623 5620 5618 5615 5613 5610 5608 5606 5603 5601 5600 5599 5598 5597 5596 5595 5594 5593 5593 5592 5591 5590 5589 5588 5587 5586 5585 5584 5584 5583 5583 5583 5582 5581 5580 5579 5577 5575 5573
5632 5629 5627 5624 5622 5619 5617 5615 5612 5610 5607 5605 5602 5600 5598 5597 5595 5594 5592 5590 5588 5587 5586 5584 5583 5582 5581 5579 5577 5576 5574 5573 5572 5571 5571 5570 5569 5568 5566 5565 5563 5561 5559
5629 5627 5625 5623 5620 5618 5616 5613 5611 5608 5606 5603 5601 5598 5596 5594 5591 5589 5587 5584 5582 5581 5579 5577 5576 5574 5572 5570 5568 5566 5564 5562 5561 5560 5559 5558 5556 5555 5554 5552 5550 5549 5547
5626 5624 5622 5620 5618 5616 5613 5611 5608 5606 5603 5600 5598 5595 5592 5590 5587 5584 5582 5579 5577 5574 5572 5570 5568 5566 5564 5561 5559 5557 5554 5553 5551 5549 5547 5546 5544 5542 5540 5538 5536 5535 5534
5623 5621 5619 5617 5615 5612 5610 5608 5605 5602 5600 5597 5594 5590 5587 5584 5581 5578 5575 5573 5570 5567 5565 5563 5560 5558 5555 5553 5550 5547 5544 5542 5540 5538 5536 5535 5533 5531 5528 5526 5524 5523 5522
5619 5617 5615 5613 5611 5608 5606 5603 5601 5598 5595 5592 5588 5585 5582 5579 5575 5572 5568 5565 5562 5559 5556 5554 5551 5549 5546 5543 5540 5537 5534 5531 5529 5528 5526 5524 5521 5519 5517 5515 5513 5511 5509
5614 5612 5610 5608 5605 5603 5601 5598 5595 5593 5590 5586 5583 5579 5575 5571 5568 5564 5560 5557 5554 5551 5548 5545 5543 5539 5536 5534 5530 5527 5524 5521 5519 5517 5515 5512 5510 5508 5505 5503 5501 5500 5498
5607 5606 5604 5602 5599 5597 5594 5592 5589 5586 5583 5579 5576 5572 5568 5564 5559 5556 5552 5549 5545 5542 5539 5536 5533 5530 5527 5524 5521 5518 5515 5512 5509 5507 5504 5502 5499 5496 5494 5492 5490 5489 5488
5601 5599 5597 5594 5592 5590 5587 5584 5581 5578 5575 5571 5568 5564 5559 5555 5551 5547 5543 5539 5536 5532 5529 5525 5522 5520 5517 5514 5510 5508 5505 5503 5500 5497 5495 5493 5490 5487 5484 5482 5480 5479 5478
5594 5591 5589 5586 5584 5582 5579 5576 5573 5570 5566 5563 5559 5554 5550 5545 5541 5537 5533 5529 5526 5522 5518 5515 5512 5509 5506 5503 5500 5498 5495 5493 5490 5488 5486 5484 5481 5478 5476 5474 5472 5470 5469